Location: Poughquag
(41.6090°N, 73.6820°W)
Time: 03:50:20
(UTC-04:00)

ISS - Visible Passes

Search period start: 26 October 2020 00:00
Search period end: 04 November 2020 23:00
Orbit: 417 x 420 km, 51.6° (Epoch: 26 October)

Date Brightness Start Highest point End Pass type
(mag) Time Alt. Az. Time Alt. Az. Time Alt. Az.
26 Oct -0.8 04:46:05 17° E 04:46:05 17° E 04:47:04 10° ENE visible
26 Oct -2.9 06:19:03 20° W 06:20:47 34° NNW 06:23:54 10° NE visible
27 Oct -3.0 05:33:34 43° N 05:33:34 43° N 05:36:15 10° NE visible
28 Oct -0.7 04:47:59 14° NE 04:47:59 14° NE 04:48:32 10° NE visible
28 Oct -2.0 06:20:56 16° NW 06:22:20 20° NNW 06:24:57 10° NE visible
29 Oct -2.0 05:35:16 23° N 05:35:16 23° N 05:37:17 10° NE visible
30 Oct -0.5 04:49:32 11° NE 04:49:32 11° NE 04:49:38 10° NE visible
30 Oct -1.6 06:22:29 12° NW 06:24:02 15° N 06:26:09 10° NNE visible
31 Oct -1.5 05:36:43 16° N 05:36:43 16° N 05:38:21 10° NNE visible
01 Nov -1.4 05:23:52 11° NNW 05:25:45 15° N 05:27:48 10° NE visible
02 Nov -1.3 04:38:03 15° N 04:38:03 15° N 04:39:44 10° NE visible
03 Nov -1.6 05:25:10 11° NNW 05:27:26 18° NNE 05:29:53 10° ENE visible
04 Nov -1.5 04:39:22 16° N 04:39:25 16° N 04:41:38 10° NE visible
